DW1253 Weather Reports


time (UTC)temp
C
wind
direction
speed
KPH
gust
KPH
rain 1hr
cm
rain 24hr
cm
rain mn
cm
humidity
%
barometer
mb
20260831060837 17 229 0.0 6.4 0.00 0.51 0.03 94 1019.5
20260831060333 17 236 1.6 6.4 0.00 0.51 0.03 94 1019.5
20260831055840 17 234 1.6 3.2 0.00 0.51 0.03 94 1019.5
20260831055333 17 234 0.0 4.8 0.00 0.51 0.03 94 1019.4
20260831054848 17 234 0.0 4.8 0.00 0.51 0.03 94 1019.5
20260831054341 18 226 1.6 8.0 0.00 0.51 0.03 94 1019.6
20260831053837 17 226 1.6 8.0 0.00 0.51 0.03 94 1019.6
20260831053351 17 217 1.6 6.4 0.00 0.51 0.03 94 1019.6
20260831052846 17 217 3.2 8.0 0.00 0.51 0.03 94 1019.6
20260831052340 17 221 3.2 8.0 0.00 0.51 0.03 94 1019.6
20260831051835 17 222 3.2 6.4 0.00 0.51 0.03 94 1019.7
20260831051348 17 223 4.8 8.0 0.00 0.51 0.03 94 1019.6
20260831050847 17 219 3.2 9.7 0.00 0.51 0.03 94 1019.6
20260831050402 17 221 3.2 8.0 0.00 0.51 0.03 94 1019.6
20260831045849 17 246 1.6 4.8 0.03 0.51 0.03 94 1019.6
20260831045344 17 199 1.6 4.8 0.03 0.51 0.03 94 1019.7
20260831044839 17 236 1.6 4.8 0.03 0.51 0.03 94 1019.6
20260831044333 17 223 0.0 4.8 0.03 0.51 0.03 94 1019.7
20260831043908 17 223 1.6 4.8 0.03 0.51 0.03 93 1019.6
20260831043342 17 238 0.0 4.8 0.05 0.51 0.03 93 1019.6
20260831042836 17 193 0.0 4.8 0.05 0.51 0.03 93 1019.7
20260831042350 17 150 1.6 4.8 0.08 0.51 0.03 93 1019.7
20260831041845 17 218 1.6 4.8 0.08 0.51 0.03 93 1019.7
20260831041339 17 142 0.0 3.2 0.08 0.51 0.03 93 1019.6
20260831040854 17 208 1.6 3.2 0.10 0.51 0.03 93 1019.5
20260831040409 17 207 0.0 3.2 0.10 0.51 0.03 93 1019.5
20260831035834 17 207 1.6 3.2 0.08 0.48 0.48 93 1019.5
20260831035349 17 206 0.0 3.2 0.08 0.48 0.48 93 1019.6
20260831034844 17 206 1.6 3.2 0.10 0.48 0.48 93 1019.7
20260831034337 17 205 0.0 3.2 0.10 0.48 0.48 93 1019.7
20260831033852 17 205 0.0 3.2 0.10 0.48 0.48 93 1019.7
20260831033347 17 205 0.0 3.2 0.10 0.46 0.46 93 1019.6
20260831032904 17 205 0.0 4.8 0.13 0.46 0.46 93 1019.7
20260831032336 17 205 1.6 6.4 0.13 0.43 0.43 93 1019.9
20260831031850 17 237 1.6 6.4 0.15 0.43 0.43 93 1019.7
20260831031405 17 211 0.0 4.8 0.15 0.43 0.43 93 1019.9
20260831030840 17 211 1.6 4.8 0.15 0.41 0.41 93 1019.9
20260831030334 17 211 1.6 3.2 0.18 0.41 0.41 92 1019.8
20260831025902 17 211 1.6 4.8 0.23 0.41 0.41 92 1019.9
20260831025334 17 211 1.6 8.0 0.25 0.41 0.41 92 1019.8
20260831024834 17 213 3.2 8.0 0.25 0.38 0.38 92 1019.7
20260831024347 17 214 3.2 4.8 0.25 0.38 0.38 92 1019.7
20260831023900 17 205 1.6 4.8 0.25 0.38 0.38 92 1019.8
20260831023334 17 205 1.6 6.4 0.23 0.36 0.36 92 1019.8
20260831022847 17 236 3.2 6.4 0.20 0.33 0.33 92 1019.9
20260831022341 17 223 1.6 6.4 0.18 0.30 0.30 92 1020.1
20260831021853 18 223 1.6 6.4 0.15 0.28 0.28 92 1020.0
20260831021347 18 225 3.2 6.4 0.18 0.28 0.28 92 1020.1
20260831020842 18 217 3.2 8.0 0.15 0.25 0.25 92 1020.1
20260831020338 18 224 3.2 9.7 0.13 0.23 0.23 92 1020.1
20260831015847 18 236 3.2 9.7 0.08 0.18 0.18 92 1020.1
20260831015342 18 230 3.2 6.4 0.05 0.15 0.15 92 1020.1
20260831014857 18 228 1.6 6.4 0.03 0.13 0.13 92 1020.0
20260831014409 18 227 1.6 8.0 0.03 0.13 0.13 92 1020.1
20260831013902 18 236 3.2 8.0 0.03 0.13 0.13 92 1020.0
20260831013335 18 207 1.6 8.0 0.03 0.13 0.13 91 1020.1
20260831012850 18 211 3.2 8.0 0.03 0.13 0.13 91 1020.0
20260831012404 18 217 3.2 4.8 0.03 0.13 0.13 91 1019.9
20260831011838 18 239 3.2 6.4 0.03 0.13 0.13 91 1019.9
20260831011351 18 208 3.2 6.4 0.00 0.10 0.10 91 1019.9
20260831010847 18 215 1.6 4.8 0.03 0.10 0.10 90 1019.9
20260831010342 18 194 1.6 6.4 0.03 0.10 0.10 90 1019.7
20260831005848 18 192 1.6 6.4 0.03 0.10 0.10 91 1019.7
20260831005343 18 215 0.0 4.8 0.03 0.10 0.10 91 1019.6
20260831004836 18 215 1.6 4.8 0.03 0.10 0.10 90 1019.5
20260831004351 18 215 1.6 4.8 0.03 0.10 0.10 90 1019.6
20260831003844 18 215 1.6 4.8 0.03 0.10 0.10 90 1019.5
20260831003339 18 226 1.6 4.8 0.03 0.10 0.10 90 1019.4
20260831002837 18 226 1.6 4.8 0.03 0.10 0.10 90 1019.4
20260831002351 18 227 3.2 6.4 0.03 0.10 0.10 90 1019.3
20260831001847 18 244 1.6 6.4 0.03 0.10 0.10 90 1019.2
20260831001341 18 237 1.6 4.8 0.03 0.10 0.10 90 1019.1
20260831000856 18 248 1.6 6.4 0.03 0.08 0.08 89 1019.0
20260831000410 18 254 1.6 6.4 0.03 0.08 0.08 89 1019.0
20260830235835 18 161 1.6 3.2 0.03 0.08 0.08 89 1019.0
20260830235350 18 146 0.0 1.6 0.03 0.08 0.08 90 1019.0
20260830234845 18 146 0.0 1.6 0.03 0.08 0.08 90 1018.9
20260830234357 18 146 0.0 1.6 0.03 0.08 0.08 89 1019.0
20260830233852 18 146 0.0 1.6 0.05 0.08 0.08 89 1018.9
20260830233347 18 146 0.0 1.6 0.05 0.08 0.08 89 1018.8
20260830232840 18 146 0.0 1.6 0.05 0.08 0.08 89 1018.8
20260830232335 18 146 0.0 1.6 0.05 0.08 0.08 89 1018.8
20260830231909 18 146 0.0 1.6 0.05 0.08 0.08 89 1018.8
20260830231343 18 146 0.0 3.2 0.05 0.08 0.08 89 1018.8
20260830230836 18 146 0.0 3.2 0.03 0.05 0.05 89 1018.8
20260830230331 18 146 0.0 1.6 0.03 0.05 0.05 89 1018.8
20260830225836 18 146 0.0 3.2 0.03 0.05 0.05 89 1018.8
20260830225351 18 146 0.0 3.2 0.03 0.05 0.05 89 1018.9
20260830224844 18 146 0.0 1.6 0.03 0.05 0.05 89 1018.8
20260830224339 18 146 0.0 0.0 0.03 0.05 0.05 88 1018.9
20260830223835 18 146 0.0 1.6 0.00 0.03 0.03 88 1018.9
20260830223350 18 146 0.0 1.6 0.00 0.03 0.03 88 1019.0
20260830222843 18 146 0.0 1.6 0.00 0.03 0.03 88 1019.0
20260830222342 18 146 0.0 1.6 0.00 0.03 0.03 88 1019.1
20260830221836 18 146 0.0 0.0 0.00 0.03 0.03 88 1019.1
20260830221351 18 146 0.0 1.6 0.00 0.03 0.03 88 1019.0
20260830220906 18 146 0.0 3.2 0.00 0.03 0.03 88 1019.0
20260830220340 19 146 0.0 3.2 0.00 0.03 0.03 88 1019.0
20260830215847 19 146 0.0 0.0 0.00 0.03 0.03 88 1019.0
20260830215340 19 146 0.0 0.0 0.00 0.03 0.03 88 1019.0
20260830214835 19 146 0.0 3.2 0.00 0.03 0.03 88 1019.0
20260830214349 19 146 1.6 3.2 0.00 0.03 0.03 88 1019.0
20260830213844 19 146 1.6 4.8 0.00 0.03 0.03 88 1018.9
20260830213339 19 146 1.6 4.8 0.00 0.03 0.03 87 1018.9
20260830212834 19 146 0.0 3.2 0.00 0.03 0.03 86 1018.9
20260830212349 19 146 0.0 1.6 0.00 0.03 0.03 86 1018.9
20260830211903 19 146 0.0 1.6 0.00 0.03 0.03 86 1018.9
20260830211335 19 146 0.0 1.6 0.00 0.03 0.03 86 1019.0
20260830210850 19 146 0.0 1.6 0.00 0.03 0.03 86 1019.1
20260830210345 19 146 0.0 1.6 0.00 0.03 0.03 86 1019.0
20260830205851 19 146 0.0 1.6 0.00 0.03 0.03 85 1019.1
20260830205346 20 146 0.0 0.0 0.00 0.03 0.03 85 1019.0
20260830204839 20 146 0.0 1.6 0.00 0.03 0.03 84 1019.0
20260830204334 20 146 1.6 3.2 0.00 0.03 0.03 84 1019.0
20260830203848 20 146 1.6 3.2 0.00 0.03 0.03 84 1019.2
20260830203347 20 146 0.0 1.6 0.00 0.03 0.03 84 1019.2
20260830202902 20 146 0.0 3.2 0.00 0.03 0.03 84 1019.1
20260830202334 20 146 1.6 3.2 0.00 0.03 0.03 83 1019.2
20260830201848 20 168 0.0 3.2 0.00 0.03 0.03 83 1019.3
20260830201343 20 168 1.6 3.2 0.00 0.03 0.03 82 1019.3
20260830200836 20 168 0.0 3.2 0.00 0.03 0.03 82 1019.3
20260830200333 20 168 0.0 3.2 0.00 0.03 0.03 82 1019.3
20260830195840 20 242 3.2 3.2 0.00 0.03 0.03 82 1019.3
20260830195336 20 195 0.0 3.2 0.00 0.03 0.03 83 1019.4
20260830194850 20 195 1.6 3.2 0.00 0.03 0.03 83 1019.4
20260830194405 20 196 0.0 4.8 0.00 0.03 0.03 83 1019.4
20260830193837 20 196 3.2 8.0 0.00 0.03 0.03 84 1019.4
20260830193411 20 231 4.8 9.7 0.00 0.03 0.03 83 1019.4
20260830192844 20 229 3.2 9.7 0.00 0.03 0.03 83 1019.4
20260830192340 20 181 1.6 4.8 0.03 0.03 0.03 84 1019.3
20260830191835 20 260 1.6 4.8 0.03 0.03 0.03 84 1019.3
20260830191350 20 311 1.6 4.8 0.03 0.03 0.03 85 1019.4
20260830190843 19 10 0.0 4.8 0.03 0.03 0.03 85 1019.6
20260830190359 19 5 1.6 4.8 0.03 0.03 0.03 85 1019.6
20260830185845 19 248 3.2 6.4 0.03 0.03 0.03 86 1019.7
20260830185340 19 219 0.0 8.0 0.03 0.03 0.03 88 1019.7
20260830184835 19 207 1.6 4.8 0.03 0.03 0.03 88 1019.7
20260830184348 19 234 3.2 4.8 0.03 0.03 0.03 87 1019.8
20260830183903 19 234 1.6 4.8 0.03 0.03 0.03 87 1019.9
20260830183337 19 239 1.6 6.4 0.03 0.03 0.03 87 1020.2
20260830182835 19 232 1.6 6.4 0.03 0.03 0.03 87 1020.2
20260830182351 19 263 0.0 3.2 0.00 0.00 0.00 87 1020.2
20260830181844 19 263 0.0 3.2 0.00 0.00 0.00 86 1020.1
20260830181339 19 263 0.0 3.2 0.00 0.00 0.00 86 1020.2
20260830180852 19 273 0.0 8.0 0.00 0.00 0.00 86 1020.1
20260830180347 19 273 3.2 8.0 0.00 0.00 0.00 86 1020.1
20260830175833 19 223 1.6 6.4 0.00 0.00 0.00 86 1020.1
20260830175348 19 179 0.0 3.2 0.00 0.00 0.00 87 1020.1
20260830174841 19 179 1.6 4.8 0.00 0.00 0.00 87 1020.1
20260830174333 19 179 3.2 6.4 0.00 0.00 0.00 87 1020.1
20260830173849 20 179 3.2 6.4 0.00 0.00 0.00 87 1020.1
20260830173344 20 52 1.6 6.4 0.00 0.00 0.00 88 1020.1
20260830172858 19 204 0.0 4.8 0.00 0.00 0.00 88 1020.0
20260830172332 19 204 0.0 4.8 0.00 0.00 0.00 88 1020.1
20260830171847 19 204 1.6 6.4 0.00 0.00 0.00 88 1020.0
20260830171343 19 204 3.2 6.4 0.00 0.00 0.00 88 1020.0
20260830170837 19 261 0.0 9.7 0.00 0.00 0.00 88 1020.1
20260830170333 19 229 3.2 9.7 0.00 0.00 0.00 88 1019.9
20260830165839 19 214 1.6 6.4 0.00 0.00 0.00 88 1019.8
20260830165334 19 250 1.6 6.4 0.00 0.00 0.00 89 1019.8
20260830164833 19 235 3.2 6.4 0.00 0.00 0.00 89 1019.9
20260830164346 18 271 1.6 4.8 0.00 0.00 0.00 87 1020.0
20260830163841 18 217 0.0 4.8 0.00 0.00 0.00 87 1020.1
20260830163335 18 217 1.6 4.8 0.00 0.00 0.00 87 1020.1
20260830162850 18 217 1.6 3.2 0.00 0.00 0.00 86 1020.2
20260830162345 18 217 0.0 3.2 0.00 0.00 0.00 86 1020.2
20260830161838 19 217 0.0 1.6 0.00 0.00 0.00 86 1020.3
20260830161352 19 217 0.0 4.8 0.00 0.00 0.00 86 1020.2
20260830160907 19 217 1.6 8.0 0.00 0.00 0.00 86 1020.3
20260830160401 19 207 3.2 8.0 0.00 0.00 0.00 86 1020.2
20260830155847 19 178 1.6 6.4 0.00 0.00 0.00 86 1020.3
20260830155343 19 231 1.6 6.4 0.00 0.00 0.00 86 1020.2
20260830154858 19 229 3.2 6.4 0.00 0.00 0.00 87 1020.3
20260830154352 18 215 0.0 4.8 0.00 0.00 0.00 86 1020.3
20260830153845 18 216 1.6 6.4 0.00 0.00 0.00 86 1020.3
20260830153339 18 220 1.6 6.4 0.00 0.00 0.00 85 1020.3
20260830152833 18 205 3.2 11.3 0.00 0.00 0.00 84 1020.5
20260830152409 18 252 3.2 11.3 0.00 0.00 0.00 84 1020.5
20260830151842 18 219 3.2 6.4 0.00 0.00 0.00 84 1020.5
20260830151336 18 188 1.6 4.8 0.00 0.00 0.00 83 1020.5
20260830150850 18 198 1.6 4.8 0.00 0.00 0.00 84 1020.4
20260830150345 18 198 1.6 14.5 0.00 0.00 0.00 83 1020.3
20260830145852 18 246 4.8 16.1 0.00 0.00 0.00 84 1020.2
20260830145347 18 234 1.6 4.8 0.00 0.00 0.00 84 1020.1
20260830144841 18 235 3.2 4.8 0.00 0.00 0.00 84 1019.8
20260830144335 18 235 1.6 4.8 0.00 0.00 0.00 84 1019.9
20260830143833 18 236 0.0 3.2 0.00 0.00 0.00 84 1019.7
20260830143347 18 248 1.6 3.2 0.00 0.00 0.00 84 1019.8
20260830142841 18 248 0.0 1.6 0.00 0.00 0.00 84 1019.7
20260830142356 18 248 0.0 1.6 0.00 0.00 0.00 84 1019.7
20260830141849 18 248 0.0 3.2 0.00 0.00 0.00 84 1019.6
20260830141344 18 248 1.6 4.8 0.00 0.00 0.00 84 1019.6
20260830140839 18 248 3.2 6.4 0.00 0.00 0.00 84 1019.6
20260830140335 18 227 3.2 6.4 0.00 0.00 0.00 84 1019.6
20260830135842 18 229 0.0 4.8 0.00 0.00 0.00 84 1019.7
20260830135334 18 229 3.2 4.8 0.00 0.00 0.00 83 1019.6
20260830134849 18 215 1.6 6.4 0.00 0.00 0.00 83 1019.5
20260830134345 18 225 1.6 6.4 0.00 0.00 0.00 83 1019.5
20260830133840 18 173 1.6 4.8 0.00 0.00 0.00 83 1019.5
20260830133356 18 172 1.6 4.8 0.00 0.00 0.00 83 1019.6
20260830132851 18 172 1.6 4.8 0.00 0.00 0.00 83 1019.4
20260830132345 18 169 1.6 4.8 0.00 0.00 0.00 83 1019.4
20260830131839 18 169 0.0 4.8 0.00 0.00 0.00 82 1019.4
20260830131333 18 169 1.6 4.8 0.00 0.00 0.00 82 1019.5
20260830130848 18 169 3.2 6.4 0.00 0.00 0.00 81 1019.6
20260830130342 19 168 0.0 1.6 0.00 0.00 0.00 82 1019.5
20260830125849 19 168 0.0 1.6 0.00 0.00 0.00 81 1019.4
20260830125344 19 168 0.0 1.6 0.00 0.00 0.00 80 1019.3
20260830124841 19 168 0.0 3.2 0.00 0.00 0.00 81 1019.3
20260830124335 19 168 0.0 6.4 0.00 0.00 0.00 80 1019.3
20260830123910 18 192 1.6 6.4 0.00 0.00 0.00 81 1019.2
20260830123343 18 139 0.0 3.2 0.00 0.00 0.00 82 1019.3
20260830122838 18 139 0.0 3.2 0.00 0.00 0.00 81 1019.2
20260830122352 18 139 1.6 3.2 0.00 0.00 0.00 81 1019.3
20260830121845 18 139 1.6 3.2 0.00 0.00 0.00 81 1019.3
20260830121400 18 200 1.6 4.8 0.00 0.00 0.00 81 1019.3
20260830120833 18 198 1.6 4.8 0.00 0.00 0.00 81 1019.3
20260830120348 18 217 1.6 3.2 0.00 0.00 0.00 81 1019.3
20260830115834 18 251 0.0 6.4 0.00 0.00 0.00 81 1019.3
20260830115408 18 251 1.6 6.4 0.00 0.00 0.00 81 1019.3
20260830114903 18 170 0.0 0.0 0.00 0.00 0.00 81 1019.3
20260830114338 17 170 0.0 3.2 0.00 0.00 0.00 81 1019.3
20260830113852 17 170 0.0 3.2 0.00 0.00 0.00 81 1019.4
20260830113407 17 170 0.0 3.2 0.00 0.00 0.00 81 1019.3
20260830112841 17 170 1.6 3.2 0.00 0.00 0.00 81 1019.3
20260830112336 17 170 1.6 3.2 0.00 0.00 0.00 81 1019.5
20260830111849 17 170 1.6 3.2 0.00 0.00 0.00 81 1019.5
20260830111344 17 205 0.0 4.8 0.00 0.00 0.00 81 1019.6
20260830110838 17 205 1.6 4.8 0.00 0.00 0.00 81 1019.7
20260830110334 17 200 1.6 3.2 0.00 0.00 0.00 81 1019.7
20260830105839 17 200 0.0 4.8 0.00 0.00 0.00 80 1019.7
20260830105352 17 200 1.6 4.8 0.00 0.00 0.00 81 1019.6
20260830104847 17 132 0.0 4.8 0.00 0.00 0.00 81 1019.5
20260830104341 17 132 0.0 4.8 0.00 0.00 0.00 81 1019.5
20260830103839 17 132 1.6 3.2 0.00 0.00 0.00 81 1019.5
20260830103333 17 185 0.0 3.2 0.00 0.00 0.00 81 1019.4
20260830102849 17 185 1.6 3.2 0.00 0.00 0.00 81 1019.4
20260830102403 17 215 0.0 4.8 0.00 0.00 0.00 81 1019.4
20260830101837 17 196 0.0 9.7 0.00 0.00 0.00 81 1019.5
20260830101351 17 188 1.6 9.7 0.00 0.00 0.00 81 1019.4
20260830100846 17 185 1.6 4.8 0.00 0.00 0.00 81 1019.5
20260830100341 17 269 1.6 3.2 0.00 0.00 0.00 81 1019.5
20260830095849 17 269 1.6 4.8 0.00 0.00 0.00 81 1019.6
20260830095344 17 269 1.6 4.8 0.00 0.00 0.00 81 1019.6
20260830094839 17 283 1.6 3.2 0.00 0.00 0.00 81 1019.6
20260830094332 17 283 0.0 3.2 0.00 0.00 0.00 81 1019.5
20260830093848 17 283 0.0 4.8 0.00 0.00 0.00 81 1019.5
20260830093402 17 284 1.6 4.8 0.00 0.00 0.00 80 1019.5
20260830092856 17 197 1.6 4.8 0.00 0.00 0.00 80 1019.5
20260830092350 17 214 0.0 3.2 0.00 0.00 0.00 80 1019.5
20260830091846 17 207 0.0 3.2 0.00 0.00 0.00 80 1019.4
20260830091338 17 207 1.6 3.2 0.00 0.00 0.00 80 1019.4
20260830090832 17 212 0.0 3.2 0.00 0.00 0.00 80 1019.5
20260830090347 17 213 0.0 4.8 0.00 0.00 0.00 80 1019.5
20260830085834 17 203 0.0 4.8 0.00 0.00 0.00 80 1019.7
20260830085349 17 215 0.0 4.8 0.00 0.00 0.00 80 1019.6
20260830084843 17 236 1.6 6.4 0.00 0.00 0.00 80 1019.7
20260830084341 17 201 1.6 6.4 0.00 0.00 0.00 80 1019.7
20260830083836 17 179 1.6 8.0 0.00 0.00 0.00 80 1019.8
20260830083350 17 211 3.2 8.0 0.00 0.00 0.00 80 1019.8
20260830082844 17 188 1.6 8.0 0.00 0.00 0.00 79 1019.8
20260830082339 17 177 1.6 4.8 0.00 0.00 0.00 79 1019.9
20260830081854 17 192 1.6 3.2 0.00 0.00 0.00 79 1020.1
20260830081347 17 227 0.0 4.8 0.00 0.00 0.00 79 1020.0
20260830080841 17 227 0.0 4.8 0.00 0.00 0.00 80 1020.0
20260830080335 17 164 1.6 3.2 0.00 0.00 0.00 80 1020.1
20260830075842 17 164 1.6 8.0 0.00 0.00 0.00 80 1020.1
20260830075337 17 164 0.0 8.0 0.00 0.00 0.00 80 1020.1
20260830074853 17 161 0.0 4.8 0.00 0.00 0.00 80 1019.9
20260830074347 17 161 1.6 4.8 0.00 0.00 0.00 80 1020.1
20260830073841 17 221 0.0 3.2 0.00 0.00 0.00 80 1020.1
20260830073336 17 221 1.6 4.8 0.00 0.00 0.00 80 1020.1
20260830072911 17 256 0.0 4.8 0.00 0.00 0.00 79 1020.1
20260830072345 17 173 0.0 4.8 0.00 0.00 0.00 80 1020.1
20260830071838 17 161 1.6 4.8 0.00 0.00 0.00 80 1020.1
20260830071352 16 222 1.6 3.2 0.00 0.00 0.00 81 1020.1
20260830070847 16 222 0.0 1.6 0.00 0.00 0.00 81 1020.1
20260830070402 16 222 0.0 1.6 0.00 0.00 0.00 80 1020.1
20260830065846 16 222 0.0 4.8 0.00 0.00 0.00 80 1020.1
20260830065343 16 222 1.6 4.8 0.00 0.00 0.00 80 1020.1
20260830064840 17 247 0.0 1.6 0.00 0.00 0.00 80 1020.1
20260830064335 17 247 0.0 1.6 0.00 0.00 0.00 80 1020.1
20260830063850 17 247 0.0 1.6 0.00 0.00 0.00 80 1020.2
20260830063405 17 247 0.0 3.2 0.00 0.00 0.00 79 1020.1
20260830062840 17 225 1.6 4.8 0.00 0.00 0.00 79 1020.2
20260830062414 17 252 1.6 4.8 0.00 0.00 0.00 79 1020.2
20260830061908 17 143 0.0 3.2 0.00 0.00 0.00 79 1020.3
20260830061403 17 142 0.0 3.2 0.00 0.00 0.00 79 1020.4